GFSCGP_prec_cloud_240.txt.gz
Cloud_Cover
0 0 1 4 0 98 2 53 64 0 0 0 0 0 19 10 18 96 60 33 5 4 0 0 1 4 100 100 100 100 5 3 2 0 0 7 0 46 60 56 0 0 0 0
0 0 0 5 7 79 5 12 63 2 0 0 0 0 0 0 4 4 28 81 7 5 2 0 0 4 35 99 100 100 14 5 52 0 2 29 64 6 31 8 0 0 0 0
0 0 0 5 5 37 64 5 42 45 0 0 0 1 0 0 0 3 30 40 28 22 5 1 0 93 20 79 100 100 86 34 10 71 1 2 31 21 0 0 0 0 0 0
0 0 0 0 5 4 17 62 6 28 4 53 0 86 5 0 0 0 5 8 7 25 44 89 2 1 3 92 100 100 29 98 32 100 100 33 1 0 0 0 0 0 0 2
0 0 0 0 0 5 5 98 5 5 5 45 4 4 72 2 0 0 3 55 5 5 57 99 40 100 72 22 94 16 9 100 76 100 100 100 6 0 0 0 0 0 0 0
0 0 0 0 0 4 5 32 5 5 9 24 6 5 6 11 0 2 5 5 5 5 95 55 88 86 58 8 100 100 100 100 39 100 100 95 12 56 1 0 0 0 0 0
0 0 0 0 0 1 5 26 5 9 34 29 88 3 5 15 0 0 1 9 5 5 11 97 99 100 81 4 42 100 100 100 11 100 100 100 100 5 100 78 0 2 3 0
0 0 0 0 0 0 5 6 64 65 44 35 54 0 0 0 0 0 0 0 0 5 70 71 69 90 94 97 27 100 100 76 5 65 99 100 100 100 100 100 14 51 93 72
0 0 0 0 0 0 0 1 3 75 83 63 54 0 0 0 5 5 3 0 0 4 3 5 74 100 69 10 62 87 56 100 100 100 96 100 100 100 100 97 100 49 100 98
0 0 0 0 0 0 0 1 0 2 32 46 6 6 5 5 5 5 4 0 0 0 0 4 44 4 58 52 76 52 99 100 100 98 33 99 100 100 100 67 99 100 62 98
0 0 0 0 0 0 0 0 0 0 1 5 6 3 4 1 1 5 5 3 0 0 0 0 2 5 77 100 88 98 82 88 100 33 41 85 72 75 100 100 60 100 100 98
0 0 0 0 0 0 0 0 0 0 0 0 0 4 70 0 3 10 79 5 3 0 0 4 0 5 22 99 93 100 100 100 100 100 100 99 47 100 100 100 80 100 100 100
0 0 0 0 0 0 0 0 0 0 0 2 0 0 0 1 9 74 98 97 82 6 2 1 3 1 98 16 98 60 98 100 100 100 100 98 83 96 16 97 67 100 100 100
0 0 0 0 0 0 0 0 0 0 0 0 0 0 5 1 45 38 47 100 96 74 67 24 5 5 5 90 100 89 80 91 100 100 92 100 100 6 40 100 78 81 100 100
0 0 0 0 0 0 0 0 0 0 0 0 0 0 0 0 18 3 100 100 100 97 98 48 42 14 71 9 73 100 100 100 100 100 100 93 100 100 100 100 100 90 87 100
0 0 0 0 0 0 0 0 0 0 0 0 0 0 0 0 0 0 39 100 100 51 98 86 9 96 100 100 67 94 100 100 100 84 66 100 100 100 75 7 37 94 100 89
26 1 0 1 2 0 0 0 0 0 0 0 0 0 0 0 25 56 75 100 100 100 100 100 100 95 78 2 4 4 79 100 100 100 100 75 89 93 94 96 74 76 100 79
100 7 2 19 44 0 0 0 0 0 0 0 0 2 14 88 100 100 100 100 100 100 100 100 100 100 100 71 77 28 22 52 99 100 100 100 93 71 100 100 72 25 99 100
18 100 27 35 30 99 4 0 0 0 0 60 0 68 97 84 43 100 100 100 100 100 100 100 100 100 100 100 95 69 92 60 55 97 62 97 72 74 100 100 100 98 99 99
100 32 84 100 100 100 100 1 0 0 0 22 100 74 66 93 21 100 100 100 100 100 100 100 100 100 100 100 100 100 100 100 100 62 57 100 100 98 100 100 100 100 100 100
4 100 12 24 79 100 84 8 0 0 12 37 85 71 87 69 72 94 100 100 100 100 100 100 100 100 100 100 100 100 100 100 84 100 100 100 100 100 100 100 100 100 100 100
1 3 100 73 99 99 100 60 50 94 100 94 100 95 99 100 100 100 96 100 100 100 100 100 100 100 98 98 100 92 100 100 100 100 100 100 100 100 100 100 100 99 99 100
19 22 99 100 98 99 100 100 100 100 100 98 100 100 100 100 100 100 98 74 100 100 100 100 97 84 82 56 98 62 84 74 100 87 100 100 100 100 100 100 100 100 100 100
10 93 93 87 100 100 100 100 100 100 100 100 98 95 100 100 100 100 100 100 100 100 96 52 49 40 4 86 48 50 79 48 41 49 42 44 79 100 100 100 100 100 100 100
94 100 100 99 97 100 100 100 100 100 100 88 93 42 83 89 97 100 98 100 100 88 63 94 78 9 5 5 73 48 55 48 90 92 80 61 100 99 99 100 100 100 100 99
100 100 100 100 93 100 100 100 100 100 92 93 100 81 100 2 4 48 94 84 85 87 59 11 1 26 41 11 5 46 64 100 49 77 100 97 54 100 100 96 100 95 99 100

GFSCGP_prec_cloud_243.txt.gz
Cloud_Cover
0 0 0 5 5 29 99 100 100 100 4 4 8 77 100 21 100 100 100 8 5 71 66 49 0 0 0 37 71 100 89 0 8 0 64 90 100 100 96 97 66 19 0 0
0 0 0 4 5 25 10 7 97 74 23 0 95 12 36 62 20 85 94 76 5 5 3 0 0 0 0 0 99 99 99 0 4 100 16 97 100 100 57 100 0 82 12 1
0 0 0 5 5 6 97 100 100 100 34 0 10 1 4 10 0 29 26 100 68 14 10 0 0 1 1 2 7 100 98 5 0 22 100 32 39 85 99 41 2 0 8 0
0 0 0 0 5 5 75 99 94 78 98 30 60 82 100 65 12 0 68 66 77 74 82 53 4 5 4 98 7 100 100 4 5 10 100 75 100 74 6 0 7 0 0 0
0 0 0 0 1 5 5 100 86 100 92 46 90 5 100 97 42 14 0 99 100 86 14 5 2 17 17 1 80 27 79 0 84 18 100 84 5 20 2 51 2 32 0 0
0 0 0 0 1 3 5 36 98 86 99 98 95 96 100 30 48 25 4 79 100 100 42 28 56 89 24 5 2 100 100 100 23 19 100 100 100 100 3 27 0 0 0 0
0 0 0 1 5 5 5 7 68 100 98 73 96 100 100 72 100 27 3 0 5 81 62 45 8 97 99 5 1 67 100 100 100 77 100 100 100 100 100 46 0 9 11 39
0 0 0 0 2 5 5 6 67 100 100 96 89 100 100 96 43 5 14 0 2 5 45 8 5 16 84 81 61 0 100 100 100 100 100 100 52 100 100 94 4 0 50 3
0 0 0 1 0 1 0 4 6 100 100 96 100 68 6 24 0 5 3 50 0 0 0 5 16 84 99 100 72 100 56 96 100 100 48 89 100 100 100 100 98 100 18 98
0 0 0 0 2 0 1 1 30 46 56 100 100 100 100 4 2 5 65 5 1 0 0 1 1 6 26 86 7 20 12 38 16 36 100 100 100 100 100 100 100 100 100 9
0 0 0 3 5 0 0 21 49 5 18 59 100 100 100 100 91 8 74 8 1 0 0 0 0 1 6 30 5 5 73 4 5 91 99 100 26 17 100 100 100 97 93 100
0 0 0 59 15 3 5 5 5 68 4 15 98 100 100 77 20 8 29 25 2 4 4 0 0 1 0 60 24 99 44 29 81 74 100 31 5 6 100 100 100 100 36 100
0 0 0 6 98 68 0 0 0 5 25 6 78 34 100 13 100 37 16 0 5 60 4 0 0 0 0 0 0 100 74 69 42 12 93 100 100 100 100 98 100 29 100 83
0 0 0 3 4 2 0 0 0 0 5 15 35 91 100 14 4 39 0 1 5 100 25 5 0 5 0 0 0 42 100 100 100 100 99 100 100 100 99 100 51 13 67 55
0 0 1 0 32 85 10 0 0 0 0 0 38 100 97 100 98 1 0 1 5 100 75 94 41 12 5 4 1 0 95 98 79 100 100 100 100 100 100 100 94 96 33 10
6 24 1 5 0 26 99 5 0 0 0 0 31 92 100 100 94 1 0 0 63 95 100 8 5 70 34 26 13 7 26 100 100 100 100 100 100 100 100 100 100 100 100 32
0 0 54 88 99 48 2 0 0 0 0 0 3 6 100 74 0 0 0 23 93 91 75 22 43 30 33 37 39 31 45 82 100 64 79 99 100 92 98 70 77 100 17 39
21 2 16 66 100 99 3 0 0 0 0 0 0 83 20 1 2 50 73 79 73 96 96 92 54 71 56 26 42 62 44 59 57 100 99 88 100 100 93 67 62 50 46 60
74 93 2 4 89 95 32 100 48 2 1 0 0 0 0 0 0 77 100 92 100 100 100 100 96 91 100 66 100 56 69 98 97 72 41 100 95 100 70 69 100 79 95 99
36 91 99 9 100 79 90 51 0 3 96 9 0 0 0 0 0 59 86 96 100 100 100 95 100 100 100 100 86 89 98 80 49 100 100 100 32 100 98 100 100 100 100 100
2 89 58 11 2 100 89 100 39 0 4 2 0 2 1 5 42 48 66 100 98 100 100 100 100 100 100 100 100 99 74 100 76 99 93 46 65 100 89 100 100 100 100 100
22 1 100 90 72 84 16 95 93 94 84 28 78 100 99 99 76 90 100 100 100 100 100 100 100 100 100 100 100 100 100 90 70 36 86 96 52 65 100 100 100 100 100 100
100 4 42 100 100 86 82 100 100 100 99 74 100 98 98 100 100 100 100 100 100 70 80 100 100 100 100 100 100 100 100 100 100 51 82 87 100 98 100 100 100 100 100 100
86 86 11 45 99 100 93 100 100 97 100 98 100 100 100 100 100 100 100 94 86 98 100 100 100 100 98 91 100 100 98 100 100 100 98 97 17 32 20 85 100 100 100 100
69 93 52 60 100 100 100 100 100 100 100 100 91 77 72 97 100 100 100 98 85 75 66 47 80 71 21 23 40 56 68 100 100 97 23 39 98 18 10 46 100 100 100 100
100 64 100 71 94 100 98 100 100 100 99 100 100 100 100 100 100 96 100 100 100 35 85 90 63 41 45 15 4 5 4 2 38 34 18 9 86 67 9 65 100 93 100 100

GFSCGP_prec_cloud_249.txt.gz
Cloud_Cover
0 0 0 0 5 38 91 100 92 19 100 99 100 100 5 3 42 2 37 5 5 4 0 0 0 1 0 0 0 0 29 3 0 77 1 10 79 42 0 0 0 0 0 16
0 0 0 0 4 5 10 7 59 100 35 87 67 61 8 5 6 11 0 1 4 5 1 0 0 0 0 0 0 2 24 6 0 5 0 39 96 1 4 9 0 0 0 0
0 0 0 0 0 0 5 5 58 99 81 99 94 61 0 47 1 0 0 0 0 0 5 0 0 0 0 0 0 0 55 5 0 1 13 21 12 2 34 0 4 0 0 0
0 0 0 0 0 0 0 5 18 78 100 100 94 25 0 0 0 0 0 0 0 0 5 5 0 2 0 0 0 0 15 43 1 5 94 84 1 2 0 6 0 0 0 0
0 0 0 0 0 1 0 4 90 100 75 73 79 59 0 10 0 0 12 2 0 0 4 5 5 0 5 0 0 0 5 34 2 0 7 100 27 0 21 25 0 0 0 0
0 0 0 0 0 1 4 4 87 88 100 16 56 5 4 88 4 5 5 4 0 0 0 2 5 0 1 0 0 4 8 11 4 11 5 78 100 88 75 35 2 0 0 1
0 0 0 0 0 0 5 2 27 66 57 7 99 26 2 5 5 28 22 7 4 0 0 0 5 2 5 5 1 0 81 2 41 100 99 62 100 25 100 100 74 31 5 0
0 0 0 0 0 0 5 42 12 32 5 1 1 2 0 1 66 3 5 79 4 0 0 0 0 5 2 2 2 1 50 52 93 100 100 100 99 34 99 100 100 27 99 10
0 0 0 0 0 0 0 86 1 61 5 64 77 12 97 100 63 5 4 1 0 0 0 0 5 5 4 0 4 5 69 100 39 100 100 98 100 100 94 100 100 100 100 100
0 0 0 0 0 0 0 0 43 34 2 52 15 94 58 95 6 14 4 4 0 0 0 0 0 1 0 0 5 5 41 96 6 100 99 96 100 100 73 85 100 100 100 100
0 0 0 0 0 0 0 0 34 100 29 2 1 3 93 77 100 47 12 6 1 0 0 0 0 0 2 3 0 5 4 5 32 49 100 100 100 100 99 62 100 100 100 100
55 0 0 0 0 0 0 64 62 100 24 0 25 1 98 100 66 85 100 6 4 1 0 1 0 0 0 0 0 5 5 2 5 5 6 100 100 100 100 100 86 100 100 87
23 99 4 0 0 0 0 39 76 100 12 2 4 25 100 97 90 86 96 100 3 99 4 0 0 0 0 0 0 0 2 5 5 5 3 46 99 94 86 100 71 100 100 100
0 39 100 26 0 0 4 64 100 84 94 30 2 25 100 78 57 100 90 13 8 84 100 1 0 0 0 0 0 0 0 4 5 5 5 2 3 4 3 4 2 82 100 60
0 1 99 70 0 74 5 96 100 100 88 86 9 76 100 83 43 96 23 21 90 100 100 18 45 6 0 9 0 0 0 2 5 5 5 5 5 61 100 100 90 57 19 98
0 0 64 86 50 80 85 100 100 100 27 36 67 28 100 88 6 0 6 100 100 100 100 100 69 47 100 25 100 51 0 0 2 5 5 1 0 87 100 100 92 47 29 100
0 0 96 26 100 88 100 100 38 51 87 55 100 87 77 37 1 4 29 92 100 100 100 99 100 100 41 100 100 100 2 0 0 0 0 0 0 0 52 95 75 12 5 7
0 0 1 3 100 100 100 100 100 99 100 100 50 100 100 12 68 7 99 100 98 100 100 100 100 100 92 74 100 100 5 5 0 4 0 3 3 4 5 98 100 11 5 8
66 8 0 0 88 100 100 100 100 100 100 89 98 93 100 94 8 46 85 93 98 100 100 100 83 73 64 73 99 55 27 25 90 100 10 5 5 5 5 7 57 5 5 16
100 95 0 0 0 4 100 100 100 100 100 84 78 14 100 2 24 89 90 98 100 100 100 91 93 100 25 42 97 96 100 88 100 100 100 100 100 64 96 68 83 46 79 92
98 97 19 0 0 0 100 100 100 100 100 86 100 91 27 75 10 88 100 100 100 100 100 99 100 60 100 11 5 62 66 100 100 100 100 100 100 100 62 54 89 100 100 100
2 14 28 5 0 0 98 100 100 100 100 80 50 100 100 100 100 100 100 100 68 98 73 96 100 100 95 39 7 22 20 99 37 100 100 100 99 100 100 100 100 100 100 100
5 4 86 64 46 15 58 100 100 100 100 81 19 64 100 100 100 100 100 100 94 84 70 53 67 100 100 100 100 100 100 98 59 35 62 99 97 100 100 100 100 100 100 100
92 22 68 100 6 62 17 99 85 96 100 99 16 57 100 100 100 100 100 100 98 56 38 94 17 11 100 100 100 87 100 100 87 76 4 22 100 100 100 100 100 100 100 100
64 100 15 62 34 68 26 100 64 9 34 5 18 64 100 100 100 100 100 100 100 100 100 97 99 2 9 31 28 99 100 100 99 100 94 59 100 100 100 100 100 100 100 100
39 99 98 100 100 100 100 100 100 100 100 100 99 100 100 100 100 100 100 100 100 100 100 69 48 0 0 0 0 17 100 100 100 100 97 100 100 100 100 100 100 100 100 100

GFSCGP_prec_cloud_252.txt.gz
Cloud_Cover
0 0 0 1 5 99 61 26 5 99 40 14 99 89 35 29 65 53 2 5 5 4 0 0 0 0 0 0 0 0 0 0 0 0 5 0 0 0 0 0 0 0 0 0
0 0 0 0 2 88 100 87 12 33 46 75 100 8 5 5 4 0 0 0 2 5 2 0 0 0 0 0 0 0 0 2 0 0 4 6 0 0 0 0 0 0 0 0
0 0 0 0 0 14 98 96 98 28 88 95 100 100 8 3 0 0 0 0 0 0 5 2 0 0 0 0 0 0 0 5 0 0 40 4 0 0 0 0 10 0 0 0
0 0 0 0 0 3 6 80 100 81 44 29 96 28 88 3 0 0 1 0 0 0 0 5 2 0 0 0 0 0 0 0 2 0 12 78 1 5 2 0 0 0 0 0
0 0 0 0 0 0 0 66 93 64 7 19 82 93 95 4 0 0 1 5 1 0 0 3 5 0 0 0 0 0 0 0 3 0 1 68 87 38 48 4 0 0 0 0
0 0 0 0 0 0 0 0 2 16 5 0 90 80 2 5 1 0 5 5 1 0 0 0 5 3 0 0 0 0 0 0 2 2 0 35 82 38 83 93 67 5 2 0
0 0 0 0 0 0 0 0 4 33 5 0 21 5 0 5 1 0 0 90 40 0 0 0 0 0 0 0 0 0 0 0 0 5 10 1 33 5 99 80 99 51 31 74
0 0 0 0 0 0 0 0 2 64 5 4 6 2 0 84 5 0 0 39 6 0 0 0 0 0 0 1 5 0 0 0 5 5 75 100 22 94 42 6 69 100 100 30
0 0 0 0 0 0 0 4 0 5 5 4 5 1 5 4 1 0 0 5 5 0 0 0 0 0 1 4 0 0 0 0 3 4 80 100 97 100 100 100 83 100 100 100
0 0 0 0 0 0 0 0 3 5 1 5 0 5 0 0 0 4 0 3 5 5 0 0 0 0 1 4 0 0 0 0 2 99 2 76 100 93 96 100 56 97 84 100
0 0 0 0 0 0 0 0 99 39 20 3 0 0 0 10 77 7 97 95 5 5 0 0 0 0 0 4 5 0 0 0 0 2 1 7 99 100 54 99 100 68 100 100
0 0 0 0 0 0 0 0 65 100 31 86 5 0 5 18 6 89 91 99 100 96 65 4 0 0 0 0 5 0 0 0 0 0 0 0 44 100 100 100 100 100 35 100
0 0 0 0 0 0 0 0 0 100 22 46 18 0 4 66 96 87 67 72 39 75 100 95 0 0 0 0 4 5 4 0 0 5 5 3 0 0 52 100 32 100 53 5
0 0 0 0 0 0 3 0 0 63 83 1 26 0 0 68 23 24 100 7 10 97 20 98 4 5 2 26 1 2 5 4 1 5 5 5 1 0 6 100 81 51 98 37
0 0 0 0 0 0 4 5 80 100 43 81 0 4 0 58 18 47 93 12 12 19 76 100 41 3 17 99 42 0 5 1 4 2 3 5 5 5 0 1 1 0 1 10
0 0 0 0 0 0 7 100 100 100 99 6 5 20 2 62 12 14 31 41 100 66 46 36 64 100 100 100 100 100 5 0 0 5 5 5 5 5 3 0 0 0 64 5
0 0 0 0 0 0 1 100 100 100 100 99 30 38 87 81 97 37 40 20 84 91 100 100 100 100 100 100 100 100 14 0 3 94 9 5 5 5 5 5 5 0 5 19
0 3 2 1 0 0 3 100 100 100 100 98 100 100 9 65 97 89 23 26 19 65 78 100 100 100 100 100 100 100 100 21 5 53 74 7 8 5 16 3 2 1 0 3
3 5 3 0 4 0 2 100 100 100 100 100 100 100 99 100 16 99 100 95 97 78 100 100 100 100 100 100 100 100 94 5 20 39 71 84 100 100 99 96 81 2 0 0
2 0 2 0 10 1 59 100 100 100 100 100 92 91 63 26 100 100 100 100 100 81 100 100 100 100 100 100 100 100 100 100 100 100 100 94 100 100 100 100 100 100 51 100
4 3 0 70 21 4 66 100 100 100 100 100 100 100 100 100 80 100 100 100 100 100 100 100 100 100 100 100 100 100 100 100 100 100 100 100 100 100 100 100 100 100 100 100
4 4 0 60 53 0 0 100 100 100 100 100 53 97 97 80 100 100 100 100 100 100 100 100 100 100 100 100 100 80 100 100 100 100 100 100 100 100 100 100 100 100 100 100
14 5 5 5 38 0 6 100 100 100 100 100 100 100 100 100 100 100 100 100 100 100 21 22 67 100 100 100 75 100 100 100 100 100 100 100 100 100 100 100 100 100 88 99
100 22 29 5 3 2 5 7 100 100 100 100 100 100 100 100 100 100 100 100 100 95 81 40 0 42 52 66 82 96 100 100 97 85 4 91 100 100 100 100 100 100 100 93
100 94 100 51 5 2 88 5 99 100 100 100 100 100 100 100 100 100 100 100 100 100 78 18 4 1 0 66 98 100 100 100 100 99 70 15 100 71 67 100 100 33 60 99
100 98 100 21 48 88 50 4 100 100 100 100 100 100 100 100 100 100 100 100 100 100 100 96 80 5 5 0 11 100 100 100 100 100 100 100 94 83 17 8 17 100 89 100

GFSCGP_prec_cloud_258.txt.gz
Cloud_Cover
0 0 0 95 74 1 100 28 42 100 100 100 100 100 100 100 100 100 99 93 6 0 0 0 0 0 0 0 0 0 0 0 0 0 2 0 0 0 0 0 0 0 0 0
0 0 0 0 78 49 68 85 26 5 39 100 100 100 100 89 80 94 57 45 13 5 0 0 0 0 0 0 0 0 0 0 0 0 0 0 0 0 0 0 0 0 0 0
0 0 0 0 0 5 5 48 56 40 5 3 15 26 50 26 42 0 0 45 9 5 4 0 0 0 0 0 0 0 0 0 0 0 0 0 3 0 0 0 0 0 0 0
0 0 0 0 0 0 1 5 12 6 5 1 0 4 0 0 2 0 0 0 2 8 66 4 0 0 0 0 0 0 0 0 0 0 0 1 0 4 5 2 0 0 4 4
0 0 0 0 0 0 0 0 3 5 5 6 5 0 0 0 0 0 0 0 0 0 3 6 5 0 0 0 0 0 0 0 0 0 0 0 4 0 10 5 5 5 1 5
0 0 0 0 0 0 0 0 0 4 5 2 1 4 0 0 0 0 5 0 1 1 0 0 4 3 0 0 0 0 0 0 0 0 0 0 0 0 6 5 20 5 5 5
0 0 0 0 0 0 0 0 0 0 14 0 0 0 0 0 0 3 1 0 5 4 0 0 3 5 3 0 0 0 0 0 0 0 0 0 0 0 0 5 10 51 92 17
0 0 0 0 0 0 0 0 0 0 0 0 1 0 0 0 5 84 5 32 5 5 3 2 0 5 5 5 1 0 0 0 0 0 0 0 0 0 0 0 3 5 100 100
0 0 0 0 0 0 0 0 0 0 0 0 0 0 0 0 1 67 100 78 5 0 0 2 0 0 1 5 5 0 0 0 0 0 0 0 0 0 0 0 16 14 100 100
0 0 0 0 0 0 0 0 0 0 0 0 0 0 0 0 0 4 20 6 5 4 0 0 0 0 0 0 0 5 0 1 1 0 0 0 0 0 5 5 3 58 100 100
0 0 0 0 0 0 0 0 0 0 0 0 0 0 0 0 0 0 4 5 5 5 2 2 0 0 0 0 0 0 3 0 2 3 0 0 0 0 2 6 2 5 9 24
0 0 0 0 0 0 0 0 0 0 0 0 0 0 0 0 0 0 2 5 5 5 70 5 5 0 0 78 0 0 5 3 5 5 0 0 0 0 0 0 5 9 5 5
0 0 0 0 0 0 0 0 0 0 0 0 0 0 0 0 0 0 0 99 41 27 3 67 24 5 0 0 1 4 3 34 5 5 0 2 4 0 0 0 0 3 5 39
0 0 0 0 0 0 0 0 0 0 0 0 0 0 0 0 0 0 0 1 86 15 8 80 10 18 5 3 0 27 25 100 61 91 11 5 5 72 28 0 0 0 0 0
0 0 0 0 0 0 0 0 0 0 0 0 0 0 0 0 0 2 71 26 0 89 21 33 100 16 10 67 4 1 3 96 100 41 64 5 5 5 78 94 12 2 0 0
0 0 0 0 0 0 0 0 0 0 0 0 0 0 0 0 18 20 52 100 61 100 100 100 92 20 100 51 100 12 0 5 82 100 100 86 67 5 6 49 69 35 6 5
0 0 0 0 0 0 0 0 0 0 0 0 0 0 0 55 8 38 64 100 100 100 100 100 100 63 77 55 18 100 80 6 9 31 99 100 99 77 8 40 73 53 33 40
3 0 0 0 0 1 0 0 0 0 0 0 0 0 0 29 38 11 6 100 100 100 97 100 100 100 100 100 92 82 96 100 66 83 96 94 13 100 47 12 57 76 5 5
0 0 0 0 0 0 0 0 0 0 0 0 0 0 0 0 24 0 4 68 100 100 100 100 100 100 100 100 100 76 100 100 100 100 100 100 97 100 9 85 64 49 44 87
0 0 0 0 0 0 0 0 0 7 30 0 0 0 0 0 0 0 6 97 100 100 100 100 100 84 100 100 95 64 100 100 100 100 100 100 100 97 100 64 100 62 97 100
0 0 0 0 2 0 0 0 0 0 0 1 52 2 0 0 66 49 100 100 100 100 100 100 100 100 100 97 100 100 100 100 100 100 100 100 100 99 100 100 100 100 100 100
0 2 3 3 1 3 0 0 0 0 0 0 66 96 11 0 0 66 100 100 100 93 100 100 100 100 87 89 100 100 100 100 100 100 100 100 100 100 100 100 100 100 100 99
5 5 70 56 57 44 12 94 3 5 1 0 0 62 86 64 99 100 100 100 100 100 100 100 100 100 100 100 100 100 100 100 100 100 100 100 100 100 100 100 100 100 100 100
5 5 10 85 19 77 5 6 32 3 4 0 25 70 88 100 100 100 100 100 100 100 100 99 100 100 81 100 100 100 100 100 98 100 100 100 100 100 100 100 100 100 100 100
49 8 29 94 5 9 5 6 4 0 1 30 70 100 100 100 100 100 100 100 100 100 100 100 100 100 95 66 100 100 100 100 91 100 100 100 100 100 100 100 100 100 100 100
4 5 7 22 25 99 68 24 61 66 63 99 100 100 100 100 100 100 100 100 100 100 100 100 100 100 100 96 100 100 66 96 100 100 100 100 100 100 100 100 100 100 100 100